Content
SEND FEEDBACK

Daily
Averages
Monthly
Summary
United States of America

CRAWFORD, COLORADO


Home > North America > United States > Colorado
Elevation: 5780 feet     Latitude: 38 29N     Longitude: 107 53W

WEATHER
 
SELECT A DAY
Number of Records: 180,671;   Date Range: 1/1/95 - 7/26/14
 
SHARE

PRINT THIS DATA

[ ← Previous Day ]
WEATHER ALMANAC - FEBRUARY 13, 2013
[ Next Day → ]
[ °C ]   °F
Weather ElementAverageHighLow
Temperature28.4 °F39.9 °F (1:53 pm)19.9 °F (7:53 am)
Dewpoint15.5 °F19.9 °F (7:53 pm)10.9 °F (1:53 am)
Humidity60.4 %78 % (7:53 am)38 % (3:53 pm)
Barometer30.26 in30.33 in (7:53 am)30.17 in (2:53 pm)
Wind Speed3.6 mph9.2 mph (1:53 am)
Weather ElementAverage
Visibility10 mi
Wind DirectionESE (96.5 °)

Weather ElementTotal
Precipitation---
Heating Degree Days35.1 (Base 65)
Averaged from 23 records on February 13, 2013
WEATHER CONDITIONS BREAKOUT
WIND DIRECTION BREAKOUT
WEATHER BY HOUR - FEBRUARY 13, 2013
[ °C ]   °F
Local TimeTemperatureDewpointHumidityBarometerVisibilityWind DirectionWind SpeedGust SpeedPrecipitationEventsConditions
1:53 AM21.9 °F10.9 °F63 %30.32 in10.0 miSSE (150°)9.2 mphOvercast
2:53 AM21.9 °F10.9 °F63 %30.30 in10.0 miSSE (160°)4.6 mphMostly Cloudy
3:53 AM21.9 °F12.0 °F66 %30.28 in10.0 miCalmOvercast
4:53 AM21.9 °F12.0 °F66 %30.29 in10.0 miSouth (190°)3.5 mphOvercast
5:53 AM21.9 °F14.0 °F72 %30.29 in10.0 miCalmOvercast
6:53 AM21.9 °F14.0 °F72 %30.30 in10.0 miESE (110°)3.5 mphMostly Cloudy
7:53 AM19.9 °F14.0 °F78 %30.33 in10.0 miCalmClear
8:53 AM24.1 °F14.0 °F65 %30.33 in10.0 miSE (130°)3.5 mphClear
9:53 AM28.0 °F12.9 °F53 %30.33 in10.0 miCalmClear
10:53 AM30.9 °F14.0 °F50 %30.32 in10.0 miCalmClear
11:53 AM33.1 °F14.0 °F46 %30.29 in10.0 miVariable3.5 mphClear
12:53 PM36.0 °F15.1 °F43 %30.23 in10.0 miCalmPartly Cloudy
1:53 PM39.9 °F17.1 °F40 %30.18 in10.0 miCalmClear
2:53 PM39.9 °F17.1 °F40 %30.17 in10.0 miENE (70°)4.6 mphClear
3:53 PM39.9 °F16.0 °F38 %30.17 in10.0 miNorth (10°)3.5 mphClear
4:53 PM37.9 °F17.1 °F43 %30.17 in10.0 miNorth (350°)5.8 mphClear
5:53 PM34.0 °F18.0 °F52 %30.19 in10.0 miNNW (330°)8.1 mphClear
6:53 PM30.9 °F19.0 °F61 %30.21 in10.0 miCalmClear
7:53 PM27.0 °F19.9 °F75 %30.25 in10.0 miESE (110°)4.6 mphClear
8:53 PM26.1 °F19.9 °F78 %30.25 in10.0 miSSE (150°)6.9 mphClear
9:53 PM25.0 °F19.0 °F78 %30.24 in10.0 miSSE (160°)5.8 mphClear
10:53 PM25.0 °F18.0 °F75 %30.24 in10.0 miSE (130°)6.9 mphClear
11:53 PM25.0 °F17.1 °F72 %30.22 in10.0 miSouth (170°)9.2 mphClear
Hourly data recorded from KMTJ, located miles away from Crawford, Colorado







STORIES FROM OUR PARTNERS